Weather Roundup
Issued by NWS Chicago, IL

Home | Current Version | Previous Version | Graphics & Text | Print | Product List | Glossary On
Versions: 1 2 3 4 5 6 7 8 9 10 11 12 13 14 15 16 17 18 19 20 21 22 23 24 25 26 27 28 29 30 31 32 33 34 35 36 37 38 39 40 41 42 43 44 45 46 47 48 49 50
000
NZUS59 KLOT 222200
HRRLOT

CHICAGO AREA WEATHER ROUNDUP
NATIONAL WEATHER SERVICE CHICAGO/ROMEOVILLE IL
500 PM CDT MON SEP 22 2014

NOTE: "FAIR" INDICATES FEW OR NO CLOUDS BELOW 12,000 FEET WITH NO
SIGNIFICANT WEATHER AND/OR OBSTRUCTIONS TO VISIBILITY.

* THESE STATIONS ARE NOT UNDER NWS QUALITY CONTROL. THEY ALSO MAY NOT
  REPORT WEATHER SUCH AS PRECIPITATION OR FOG.

ILZ005-006-012>014-019>023-222300-
NORTHEAST ILLINOIS

CITY           SKY/WX    TMP DP  RH WIND       PRES   REMARKS
OHARE          SUNNY     67  41  38 W5        30.23S
MIDWAY         SUNNY     66  45  46 SE7       30.23F
AURORA         SUNNY     68  43  40 N5        30.24S
LANSING*       SUNNY     63  44  49 E6        30.24S
WAUKEGAN       SUNNY     66  45  46 CALM      30.21F
DUPAGE AIRPORT SUNNY     69  43  38 VRB3      30.23F
WHEELING       SUNNY     67  43  41 CALM      30.24F
NORTHERLY IS     N/A     60  45  57 SE7         N/A
$$

WIZ051-052-058>065-066-070>072-222300-
SOUTHEAST WISCONSIN

CITY           SKY/WX    TMP DP  RH WIND       PRES   REMARKS
MILWAUKEE      MOSUNNY   68  43  40 W8        30.20F
KENOSHA*       MOSUNNY   67  46  47 W9        30.22F
RACINE*        SUNNY     63  47  55 S6        30.22F
$$

INZ001>003-010>013-019-020-222300-
NORTHWEST INDIANA

CITY           SKY/WX    TMP DP  RH WIND       PRES   REMARKS
GARY*          SUNNY     63  45  51 NE9       30.25F
MICHIGAN CITY* NOT AVBL
RENSSELAER*    NOT AVBL
VALPARAISO     SUNNY     62  41  46 N8        30.25F
$$

LMZ740>746-222300-
SOUTHERN LAKE MICHIGAN

STATION/POSITION TIME  SKY/WX   TEMP WIND        PRES    VSBY
                                AIR  DIR/SP/G
                 (UTC)          (F)  (DEG/KT/KT) (MB)    (MI)
HARRISON CRIB    2100            58  120/  8/ 10   N/A
BURNHAM HARBOR   2200            60  100/  5/  7   N/A
CALUMET HARBOR   2100            59   80/  6/  9 1022.9F
BURNS HARBOR     NOT AVBL
MICHIGAN CITY    2100            60  310/  4/  5   N/A
$$

ABBREVIATIONS USED IN REMARKS
   TC - TEMPERATURE IN CELSIUS
  WCI - WIND CHILL INDEX
   HX - HEAT INDEX
  VSB - VISIBILITY
$$



USA.gov is the U.S. government's official web portal to all federal, state and local government web resources and services.